This demonstration page uses our WeatherBlox Daily Observations layout. Learn more.

Left ArrowRight Arrow

Hourly Observations for July 13, 2022

Temp ( °F °C ) Dew Point ( °F °C ) Humidity (%) Winds ( mph kmh ) Pressure ( in mb ) Visibility ( mi km ) Precip ( " mm )
12:15 am 00:15 Mostly Cloudy 67 19.5 60 15.5 78 78 SE 8 13 30.01 1016 10 16 0.00 0.00
12:35 am 00:35 Partly Cloudy 67 19.2 60 15.5 79 79 SE 7 11 30.01 1016 10 16 0.00 0.00
12:55 am 00:55 Partly Cloudy 66 18.8 60 15.5 81 81 SE 7 11 30.01 1016 10 16 0.00 0.00
1:15 am 01:15 Clear 66 18.8 59 15.2 80 80 SE 9 15 30.00 1016 10 16 0.00 0.00
1:35 am 01:35 Clear 66 19 59 15.1 78 78 SE 9 15 30.00 1016 10 16 0.00 0.00
1:55 am 01:55 Partly Cloudy 65 18.4 59 15.1 81 81 ESE 6 9 30.02 1017 10 16 0.00 0.00
2:15 am 02:15 Partly Cloudy 65 18.5 59 15.1 81 81 SE 7 11 30.01 1016 10 16 0.00 0.00
2:35 am 02:35 Partly Cloudy 65 18.5 59 15 80 80 SE 6 9 30.01 1016 10 16 0.00 0.00
2:55 am 02:55 Mostly Cloudy 65 18.2 59 15 82 82 SE 7 11 30.00 1016 10 16 0.00 0.00
3:15 am 03:15 Cloudy 65 18.6 59 15 80 80 SSE 6 9 30.01 1016 10 16 0.00 0.00
3:35 am 03:35 Partly Cloudy 65 18.1 59 15 82 82 SSE 7 11 30.01 1016 10 16 0.00 0.00
3:55 am 03:55 Clear 64 17.6 59 15 85 85 SE 7 11 30.01 1016 10 16 0.00 0.00
4:15 am 04:15 Clear 63 17.2 59 14.8 86 86 SE 8 13 30.01 1016 10 16 0.00 0.00
4:35 am 04:35 Clear 62 16.9 59 14.9 88 88 SE 6 9 30.01 1016 10 16 0.00 0.00
4:55 am 04:55 Partly Cloudy 62 16.8 58 14.7 88 88 SE 5 7 30.01 1016 10 16 0.00 0.00
5:15 am 05:15 Cloudy 63 17.3 58 14.7 85 85 SSE 7 11 30.01 1016 10 16 0.00 0.00
5:35 am 05:35 Mostly Cloudy 64 17.7 58 14.6 82 82 S 7 11 30.02 1016 10 16 0.00 0.00
5:55 am 05:55 Partly Cloudy 64 17.9 58 14.6 81 81 SE 5 7 30.02 1017 10 16 0.00 0.00
6:15 am 06:15 Partly Cloudy 63 17 58 14.7 86 86 ESE 3 6 30.04 1017 10 16 0.00 0.00
6:35 am 06:35 Partly Cloudy 62 16.8 58 14.7 88 88 SSE 5 7 30.04 1017 10 16 0.00 0.00
6:55 am 06:55 Sunny 62 16.5 59 14.8 90 90 SE 5 7 30.05 1017 10 16 0.00 0.00
7:15 am 07:15 Partly Cloudy 62 16.8 58 14.7 88 88 SSE 7 11 30.04 1017 10 16 0.00 0.00
7:35 am 07:35 Sunny 65 18.4 59 15 81 81 SSE 6 9 30.03 1017 10 16 0.00 0.00
7:55 am 07:55 Sunny 66 19.1 59 15.1 78 78 SSE 5 7 30.02 1017 10 16 0.00 0.00
8:15 am 08:15 Sunny 68 20.2 60 15.3 74 74 S 6 9 30.02 1016 10 16 0.00 0.00
8:35 am 08:35 Sunny 70 21 60 15.3 70 70 S 7 11 30.01 1016 10 16 0.00 0.00
8:55 am 08:55 Sunny 71 21.9 60 15.5 67 67 S 7 11 30.01 1016 10 16 0.00 0.00
9:15 am 09:15 Sunny 73 22.5 60 15.7 66 66 S 7 11 30.01 1016 10 16 0.00 0.00
9:35 am 09:35 Sunny 74 23.2 60 15.6 62 62 S 9 15 29.99 1016 10 16 0.00 0.00
9:55 am 09:55 Sunny 75 24 60 15.7 60 60 S 12 19 29.98 1015 10 16 0.00 0.00
10:15 am 10:15 Sunny 76 24.7 60 15.4 56 56 SSW 14 22 29.98 1015 7 11 0.00 0.00
10:35 am 10:35 Sunny 78 25.5 60 15.5 54 54 S 13 20 29.96 1015 10 16 0.00 0.00
10:55 am 10:55 Sunny 79 26.2 60 15.7 52 52 S 15 24 29.96 1014 10 16 0.00 0.00
11:15 am 11:15 Sunny 80 26.7 60 15.8 51 51 S 15 24 29.94 1014 10 16 0.00 0.00
11:35 am 11:35 Sunny 82 27.5 61 16.3 50 50 S 13 20 29.94 1014 10 16 0.00 0.00
11:55 am 11:55 Sunny 82 28 61 16 48 48 SSW 15 24 29.93 1014 10 16 0.00 0.00
12:15 pm 12:15 Sunny 84 28.8 61 16.2 46 46 S 14 22 29.93 1013 10 16 0.00 0.00
12:35 pm 12:35 Sunny 85 29.5 62 16.4 45 45 S 10 17 29.91 1013 10 16 0.00 0.00
12:55 pm 12:55 Sunny 86 29.8 61 16.1 44 44 S 16 26 29.91 1013 10 16 0.00 0.00
1:15 pm 13:15 Sunny 87 30.5 62 16.7 43 43 S 15 24 29.89 1012 10 16 0.00 0.00
1:35 pm 13:35 Sunny 88 31 63 17 43 43 S 13 20 29.88 1012 10 16 0.00 0.00
1:55 pm 13:55 Sunny 89 31.5 61 16.2 40 40 S 14 22 29.88 1012 10 16 0.00 0.00
2:15 pm 14:15 Sunny 89 31.8 62 16.8 41 41 S 13 20 29.86 1011 10 16 0.00 0.00
2:35 pm 14:35 Sunny 89 31.5 62 16.9 42 42 S 10 17 29.86 1011 10 16 0.00 0.00
2:55 pm 14:55 Sunny 90 32.3 62 16.9 40 40 S 14 22 29.84 1010 10 16 0.00 0.00
3:15 pm 15:15 Sunny 91 32.5 63 17 39 39 SSE 12 19 29.84 1010 10 16 0.00 0.00
3:35 pm 15:35 Sunny 91 32.9 63 17.2 39 39 S 10 17 29.84 1010 10 16 0.00 0.00
3:55 pm 15:55 Sunny 91 33 62 16.8 38 38 S 12 19 29.82 1010 10 16 0.00 0.00
4:15 pm 16:15 Sunny 92 33.2 64 17.8 40 40 S 12 19 29.82 1010 10 16 0.00 0.00
4:35 pm 16:35 Sunny 92 33.2 63 17.4 39 39 SSE 12 19 29.81 1010 10 16 0.00 0.00
4:55 pm 16:55 Sunny 92 33.1 64 17.7 40 40 SSE 9 15 29.81 1010 10 16 0.00 0.00
5:15 pm 17:15 Sunny 91 33 65 18.5 42 42 SSE 12 19 29.81 1010 10 16 0.00 0.00
5:35 pm 17:35 Sunny 91 32.8 66 18.9 44 44 SE 10 17 29.82 1010 10 16 0.00 0.00
5:55 pm 17:55 Sunny 91 32.6 67 19.3 45 45 SE 10 17 29.81 1009 10 16 0.00 0.00
6:15 pm 18:15 Sunny 89 31.7 66 18.9 47 47 SE 10 17 29.81 1010 10 16 0.00 0.00
6:35 pm 18:35 Sunny 88 31.3 66 19.1 48 48 SSE 10 17 29.81 1009 10 16 0.00 0.00
6:55 pm 18:55 Sunny 88 31.3 66 18.7 47 47 SE 10 17 29.81 1009 10 16 0.00 0.00
7:15 pm 19:15 Sunny 87 30.5 67 19.2 51 51 SE 9 15 29.80 1009 10 16 0.00 0.00
7:35 pm 19:35 Sunny 86 29.8 67 19.3 53 53 SE 8 13 29.81 1009 10 16 0.00 0.00
7:55 pm 19:55 Sunny 84 28.9 64 18 52 52 SE 9 15 29.82 1010 10 16 0.00 0.00
8:15 pm 20:15 Sunny 82 27.5 62 16.8 52 52 SE 10 17 29.83 1010 10 16 0.00 0.00
8:35 pm 20:35 Sunny 80 26.8 62 16.8 54 54 SE 10 17 29.83 1010 10 16 0.00 0.00
8:55 pm 20:55 Sunny 79 26.3 62 16.5 55 55 SE 10 17 29.84 1010 10 16 0.00 0.00
9:15 pm 21:15 Clear 78 25.5 62 16.4 57 57 SE 9 15 29.84 1011 10 16 0.00 0.00
9:35 pm 21:35 Clear 76 24.7 61 16.3 60 60 SE 9 15 29.85 1011 10 16 0.00 0.00
9:55 pm 21:55 Clear 77 24.9 61 16.2 59 59 SE 9 15 29.86 1011 10 16 0.00 0.00
10:15 pm 22:15 Clear 77 25 61 16 57 57 SSE 12 19 29.86 1011 10 16 0.00 0.00
10:35 pm 22:35 Clear 78 25.5 60 15.5 54 54 SSE 12 19 29.86 1011 10 16 0.00 0.00
10:55 pm 22:55 Clear 78 25.3 60 15.5 55 55 SSE 12 19 29.86 1011 10 16 0.00 0.00
11:15 pm 23:15 Clear 77 25.1 60 15.5 55 55 SSE 10 17 29.87 1011 10 16 0.00 0.00
11:35 pm 23:35 Clear 77 25 60 15.5 56 56 SSE 10 17 29.87 1011 10 16 0.00 0.00
11:55 pm 23:55 Clear 76 24.6 60 15.5 57 57 SSE 9 15 29.88 1012 10 16 0.00 0.00

Powered by AerisWeather